Date String (YYYY-MM-DD hh:mm:ss) UTC,Instrument flags,absolute air pressure of the measurement (hPa),sample flow rate (lpm),inlet stack bypass flow (lpm),air temperature of the measurement (°C),ambient temperature measured by the external sensor (°C),aerosol sample conditioner tube jacket temperature (°C),OPC LED temperature (°C),internal box temperature (°C),relative humidity of the measurement (%),span deviation,mass concentration of particles derived from Lorenz-Mie calculation of OPC scattering (μg/m³),mass concentration of particles derived from Lorenz-Mie calculation of OPC scattering (μg/m³),mass concentration of particles derived from Lorenz-Mie calculation of OPC scattering (μg/m³)
DateTimeUTC,F1_M11,P_M11,Q1_M11,Q2_M11,T1_M11,T2_M11,T3_M11,T4_M11,T5_M11,U1_M11,ZSPAN_M11,X2_M11,X0_M11,X1_M11
2024-05-24 18:00:00,SystemResetWarning,0825.8,5.00,000.00,025.7,025.0,000.0,033.9,027.5,013.3,0000.0,0003.26,0014.44,0001.77
2024-05-24 18:01:00,SystemResetWarning,0825.9,4.99,000.00,025.7,025.0,000.0,033.9,027.5,012.6,0000.0,0003.27,0013.77,0001.76
2024-05-24 18:02:00,SystemResetWarning,0825.8,5.00,000.00,025.7,025.0,000.0,033.9,027.5,012.6,0000.0,0003.28,0013.65,0001.77
2024-05-24 18:03:00,SystemResetWarning,0825.8,5.00,000.00,025.7,025.0,000.0,033.9,027.5,012.9,0000.0,0003.32,0015.37,0001.77
2024-05-24 18:04:00,SystemResetWarning,0825.8,5.00,000.00,025.8,025.1,000.0,034.0,027.6,012.5,0000.0,0003.33,0016.04,0001.77
2024-05-24 18:05:00,SystemResetWarning,0825.8,4.99,000.00,025.8,025.1,000.0,034.0,027.5,012.8,0000.0,0003.37,0015.66,0001.78
2024-05-24 18:06:00,SystemResetWarning,0825.8,5.01,000.00,025.8,025.1,000.0,034.0,027.5,012.6,0000.0,0003.37,0016.96,0001.80
2024-05-24 18:07:00,SystemResetWarning,0825.8,5.01,000.00,025.8,025.1,000.0,034.0,027.6,012.7,0000.0,0003.39,0017.77,0001.80
2024-05-24 18:08:00,SystemResetWarning,0825.8,4.98,000.00,025.8,025.1,000.0,034.0,027.6,013.2,0000.0,0003.41,0018.91,0001.80
2024-05-24 18:09:00,SystemResetWarning,0825.8,4.99,000.00,025.8,025.1,000.0,034.0,027.6,012.9,0000.0,0003.40,0020.59,0001.83
2024-05-24 18:10:00,SystemResetWarning,0825.7,5.01,000.00,025.8,025.1,000.0,034.0,027.6,013.3,0000.0,0003.37,0021.05,0001.85
2024-05-24 18:11:00,SystemResetWarning,0825.7,5.01,000.00,025.8,025.1,000.0,034.0,027.6,013.2,0000.0,0003.41,0019.49,0001.88
2024-05-24 18:12:00,SystemResetWarning,0825.7,5.00,000.00,025.8,025.1,000.0,034.0,027.6,012.9,0000.0,0003.42,0019.20,0001.89
2024-05-24 18:13:00,SystemResetWarning,0825.7,4.99,000.00,025.8,025.1,000.0,034.0,027.6,013.2,0000.0,0003.42,0019.41,0001.89
2024-05-24 18:14:00,SystemResetWarning,0825.7,4.99,000.00,025.9,025.2,000.0,034.0,027.6,012.5,0000.0,0003.39,0018.35,0001.89
2024-05-24 18:15:00,SystemResetWarning,0825.6,5.00,000.00,025.9,025.2,000.0,034.1,027.7,013.2,0000.0,0003.41,0017.03,0001.91
2024-05-24 18:16:00,SystemResetWarning,0825.6,5.01,000.00,025.9,025.2,000.0,034.1,027.7,012.9,0000.0,0003.39,0016.43,0001.90
2024-05-24 18:17:00,SystemResetWarning,0825.6,5.01,000.00,025.9,025.2,000.0,034.1,027.7,012.7,0000.0,0003.39,0016.14,0001.90
2024-05-24 18:18:00,SystemResetWarning,0825.6,5.00,000.00,025.9,025.2,000.0,034.1,027.7,013.1,0000.0,0003.38,0015.21,0001.90
2024-05-24 18:19:00,SystemResetWarning,0825.6,4.99,000.00,025.9,025.2,000.0,034.1,027.7,012.8,0000.0,0003.37,0014.28,0001.90
2024-05-24 18:20:00,SystemResetWarning,0825.6,4.99,000.00,025.9,025.2,000.0,034.1,027.7,013.5,0000.0,0003.33,0012.94,0001.88
2024-05-24 18:21:00,SystemResetWarning,0825.6,5.00,000.00,026.0,025.2,000.0,034.1,027.7,013.3,0000.0,0003.33,0012.13,0001.85
2024-05-24 18:22:00,SystemResetWarning,0825.6,5.00,000.00,026.0,025.3,000.0,034.1,027.8,012.6,0000.0,0003.29,0012.20,0001.82
2024-05-24 18:23:00,SystemResetWarning,0825.6,5.01,000.00,026.0,025.3,000.0,034.1,027.8,012.8,0000.0,0003.27,0012.00,0001.81
2024-05-24 18:24:00,SystemResetWarning,0825.6,4.99,000.00,026.0,025.3,000.0,034.2,027.8,012.8,0000.0,0003.28,0012.73,0001.80
2024-05-24 18:25:00,SystemResetWarning,0825.6,4.99,000.00,026.0,025.3,000.0,034.2,027.8,013.3,0000.0,0003.26,0012.93,0001.78
2024-05-24 18:26:00,SystemResetWarning,0825.6,4.99,000.00,026.0,025.3,000.0,034.2,027.8,013.2,0000.0,0003.23,0013.78,0001.75
2024-05-24 18:27:00,SystemResetWarning,0825.5,5.03,000.00,026.0,025.3,000.0,034.2,027.8,012.5,0000.0,0003.20,0014.64,0001.73
2024-05-24 18:28:00,SystemResetWarning,0825.4,4.99,000.00,026.0,025.3,000.0,034.2,027.8,012.5,0000.0,0003.21,0014.18,0001.72
2024-05-24 18:29:00,SystemResetWarning,0825.4,4.99,000.00,026.0,025.3,000.0,034.2,027.8,012.9,0000.0,0003.21,0013.79,0001.73
2024-05-24 18:30:00,SystemResetWarning,0825.4,5.01,000.00,026.1,025.4,000.0,034.2,027.8,013.1,0000.0,0003.21,0014.60,0001.73
2024-05-24 18:31:00,SystemResetWarning,0825.4,5.01,000.00,026.1,025.4,000.0,034.3,027.8,013.4,0000.0,0003.21,0014.18,0001.72
2024-05-24 18:32:00,SystemResetWarning,0825.4,4.99,000.00,026.1,025.4,000.0,034.3,027.8,012.5,0000.0,0003.24,0014.89,0001.75
2024-05-24 18:33:00,SystemResetWarning,0825.4,4.99,000.00,026.1,025.4,000.0,034.3,027.9,013.2,0000.0,0003.23,0014.60,0001.77
2024-05-24 18:34:00,SystemResetWarning,0825.4,5.00,000.00,026.1,025.4,000.0,034.3,027.9,012.8,0000.0,0003.20,0014.74,0001.77
2024-05-24 18:35:00,SystemResetWarning,0825.4,5.01,000.00,026.1,025.4,000.0,034.3,027.9,013.3,0000.0,0003.16,0014.40,0001.77
2024-05-24 18:36:00,SystemResetWarning,0825.4,5.00,000.00,026.1,025.4,000.0,034.3,027.9,012.8,0000.0,0003.17,0014.25,0001.78
2024-05-24 18:37:00,SystemResetWarning,0825.3,5.00,000.00,026.1,025.4,000.0,034.3,027.9,012.5,0000.0,0003.17,0013.92,0001.81
2024-05-24 18:38:00,SystemResetWarning,0825.3,5.00,000.00,026.1,025.4,000.0,034.3,027.9,012.7,0000.0,0003.18,0013.50,0001.83
2024-05-24 18:39:00,SystemResetWarning,0825.3,4.99,000.00,026.1,025.4,000.0,034.3,027.9,013.5,0000.0,0003.16,0013.14,0001.82
2024-05-24 18:40:00,SystemResetWarning,0825.3,5.00,000.00,026.2,025.4,000.0,034.3,027.9,014.4,0000.0,0003.14,0012.80,0001.80
2024-05-24 18:41:00,SystemResetWarning,0825.3,5.00,000.00,026.2,025.5,000.0,034.3,028.0,013.2,0000.0,0003.13,0012.48,0001.79
2024-05-24 18:42:00,SystemResetWarning,0825.3,5.00,000.00,026.2,025.5,000.0,034.4,028.0,013.1,0000.0,0003.16,0012.43,0001.78
2024-05-24 18:43:00,SystemResetWarning,0825.3,5.01,000.00,026.2,025.5,000.0,034.4,028.0,012.8,0000.0,0003.14,0012.58,0001.76
2024-05-24 18:44:00,SystemResetWarning,0825.3,5.01,000.00,026.2,025.5,000.0,034.4,028.0,012.6,0000.0,0003.12,0012.08,0001.75
2024-05-24 18:45:00,SystemResetWarning,0825.3,5.00,000.00,026.2,025.5,000.0,034.4,028.0,012.4,0000.0,0003.14,0011.96,0001.77
2024-05-24 18:46:00,SystemResetWarning,0825.4,5.00,000.00,026.2,025.5,000.0,034.4,028.0,012.7,0000.0,0003.15,0012.83,0001.78
2024-05-24 18:47:00,SystemResetWarning,0825.4,5.00,000.00,026.2,025.5,000.0,034.4,028.0,013.0,0000.0,0003.14,0014.15,0001.79
2024-05-24 18:48:00,SystemResetWarning,0825.4,5.00,000.00,026.2,025.5,000.0,034.4,028.0,012.4,0000.0,0003.15,0014.82,0001.79
2024-05-24 18:49:00,SystemResetWarning,0825.3,4.99,000.00,026.2,025.5,000.0,034.4,028.0,012.5,0000.0,0003.14,0015.98,0001.78
2024-05-24 18:50:00,SystemResetWarning,0825.3,4.99,000.00,026.3,025.5,000.0,034.4,028.0,012.7,0000.0,0003.14,0016.16,0001.76
2024-05-24 18:51:00,SystemResetWarning,0825.3,4.99,000.00,026.3,025.5,000.0,034.4,028.0,012.2,0000.0,0003.16,0015.86,0001.77
2024-05-24 18:52:00,SystemResetWarning,0825.3,5.00,000.00,026.3,025.6,000.0,034.4,028.0,012.5,0000.0,0003.17,0015.68,0001.80
2024-05-24 18:53:00,SystemResetWarning,0825.2,5.01,000.00,026.3,025.6,000.0,034.5,028.1,013.1,0000.0,0003.14,0015.33,0001.82
2024-05-24 18:54:00,SystemResetWarning,0825.2,5.00,000.00,026.3,025.6,000.0,034.5,028.1,012.9,0000.0,0003.15,0014.98,0001.83
2024-05-24 18:55:00,SystemResetWarning,0825.3,4.99,000.00,026.3,025.6,000.0,034.5,028.1,012.8,0000.0,0003.17,0014.96,0001.83
2024-05-24 18:56:00,SystemResetWarning,0825.2,5.00,000.00,026.3,025.6,000.0,034.5,028.1,012.1,0000.0,0003.19,0015.42,0001.81
2024-05-24 18:57:00,SystemResetWarning,0825.3,5.00,000.00,026.4,025.7,000.0,034.5,028.1,012.2,0000.0,0003.19,0014.79,0001.80
2024-05-24 18:58:00,SystemResetWarning,0825.2,4.99,000.00,026.4,025.7,000.0,034.5,028.1,011.8,0000.0,0003.19,0013.97,0001.80
2024-05-24 18:59:00,SystemResetWarning,0825.3,5.00,000.00,026.4,025.7,000.0,034.5,028.1,012.5,0000.0,0003.20,0013.95,0001.81
